KLM33Y EDDF-EKCH

Flight info

Callsign KLM33Y
Flight time N/A
Altitude 31000
Route MARUN2D/07C MARUN Y150 TOLGI DCT SAS DCT MAKEL N851 GESKA Z711 MONAK
Aircraft A339/H-SADE1E2E3GHIJ3J5M1P2RWXY/LB2D1

Departure

Time 2026-04-14 16:18
Airport Frankfurt Main Airport (EDDF)

Arrival

Time N/A
Airport Copenhagen Kastrup Airport (EKCH)
Time Latitude Longitude Altitude Speed Heading
2026-04-14 15:49 50.04752 8.57456 383 ft 0 kts 46°
2026-04-14 15:59 50.04742 8.57440 382 ft 2 kts 46°
2026-04-14 15:59 50.04734 8.57428 382 ft 2 kts 43°
2026-04-14 16:00 50.04722 8.57414 382 ft 2 kts 25°
2026-04-14 16:00 50.04707 8.57407 382 ft 2 kts 11°
2026-04-14 16:00 50.04693 8.57403 382 ft 2 kts 11°
2026-04-14 16:00 50.04678 8.57398 382 ft 2 kts 13°
2026-04-14 16:01 50.04664 8.57393 381 ft 2 kts 12°
2026-04-14 16:01 50.04651 8.57389 381 ft 0 kts 10°
2026-04-14 16:01 50.04639 8.57387 381 ft 2 kts 355°
2026-04-14 16:01 50.04625 8.57393 381 ft 2 kts 332°
2026-04-14 16:02 50.04613 8.57407 380 ft 2 kts 310°
2026-04-14 16:02 50.04605 8.57426 380 ft 2 kts 289°
2026-04-14 16:02 50.04602 8.57449 379 ft 2 kts 268°
2026-04-14 16:02 50.04604 8.57468 379 ft 0 kts 251°
2026-04-14 16:03 50.04605 8.57475 379 ft 0 kts 250°
2026-04-14 16:07 50.04605 8.57474 379 ft 0 kts 250°
2026-04-14 16:07 50.04601 8.57460 379 ft 3 kts 250°
2026-04-14 16:07 50.04586 8.57397 380 ft 8 kts 251°
2026-04-14 16:07 50.04567 8.57314 381 ft 8 kts 251°
2026-04-14 16:08 50.04545 8.57216 380 ft 10 kts 251°
2026-04-14 16:08 50.04518 8.57101 380 ft 12 kts 250°
2026-04-14 16:08 50.04488 8.56978 379 ft 10 kts 250°
2026-04-14 16:08 50.04464 8.56884 379 ft 8 kts 236°
2026-04-14 16:09 50.04406 8.56844 378 ft 10 kts 193°
2026-04-14 16:09 50.04334 8.56823 376 ft 8 kts 191°
2026-04-14 16:09 50.04267 8.56802 373 ft 7 kts 200°
2026-04-14 16:09 50.04227 8.56708 370 ft 15 kts 250°
2026-04-14 16:10 50.04189 8.56541 367 ft 17 kts 250°
2026-04-14 16:10 50.04147 8.56361 366 ft 18 kts 250°
2026-04-14 16:10 50.04101 8.56171 364 ft 19 kts 250°
2026-04-14 16:10 50.04053 8.55967 361 ft 20 kts 250°
2026-04-14 16:11 50.04003 8.55759 358 ft 19 kts 249°
2026-04-14 16:11 50.03958 8.55576 358 ft 15 kts 250°
2026-04-14 16:11 50.03923 8.55421 358 ft 14 kts 250°
2026-04-14 16:11 50.03887 8.55271 358 ft 15 kts 250°
2026-04-14 16:12 50.03853 8.55136 356 ft 12 kts 249°
2026-04-14 16:12 50.03819 8.54994 353 ft 15 kts 250°
2026-04-14 16:12 50.03782 8.54836 352 ft 16 kts 250°
2026-04-14 16:12 50.03741 8.54658 348 ft 18 kts 251°
2026-04-14 16:13 50.03693 8.54469 347 ft 19 kts 250°
2026-04-14 16:13 50.03671 8.54377 347 ft 0 kts 250°
2026-04-14 16:14 50.03670 8.54372 347 ft 1 kts 250°
2026-04-14 16:14 50.03664 8.54345 347 ft 3 kts 248°
2026-04-14 16:15 50.03644 8.54311 347 ft 4 kts 208°
2026-04-14 16:15 50.03607 8.54311 346 ft 6 kts 159°
2026-04-14 16:15 50.03588 8.54322 345 ft 0 kts 160°
2026-04-14 16:16 50.03586 8.54324 345 ft 1 kts 160°
2026-04-14 16:16 50.03561 8.54337 345 ft 5 kts 160°
2026-04-14 16:16 50.03514 8.54363 344 ft 7 kts 160°
2026-04-14 16:16 50.03489 8.54397 343 ft 3 kts 101°
2026-04-14 16:17 50.03494 8.54430 343 ft 0 kts 71°
2026-04-14 16:17 50.03500 8.54454 343 ft 13 kts 71°
2026-04-14 16:18 50.03627 8.54990 349 ft 89 kts 69°
2026-04-14 16:18 50.03926 8.56228 359 ft 152 kts 70°
2026-04-14 16:18 50.04312 8.57920 747 ft 173 kts 71°
2026-04-14 16:18 50.04699 8.59629 1573 ft 167 kts 69°
2026-04-14 16:19 50.05068 8.61257 2253 ft 160 kts 69°
2026-04-14 16:19 50.05452 8.62940 2595 ft 174 kts 69°
2026-04-14 16:19 50.05875 8.64812 2919 ft 191 kts 69°
2026-04-14 16:19 50.06327 8.66827 3232 ft 208 kts 69°
2026-04-14 16:20 50.06824 8.69053 3656 ft 222 kts 69°
2026-04-14 16:20 50.07568 8.71091 4233 ft 225 kts 41°
2026-04-14 16:20 50.08804 8.72189 4595 ft 237 kts 19°
2026-04-14 16:20 50.10250 8.72984 4958 ft 252 kts 23°
2026-04-14 16:21 50.11873 8.74087 5588 ft 258 kts 24°
2026-04-14 16:21 50.13523 8.75242 6334 ft 259 kts 24°
2026-04-14 16:21 50.15159 8.76379 7010 ft 263 kts 24°
2026-04-14 16:21 50.16831 8.77530 7637 ft 268 kts 24°
2026-04-14 16:22 50.18538 8.78694 8254 ft 273 kts 23°
2026-04-14 16:22 50.20301 8.79895 8872 ft 277 kts 23°
2026-04-14 16:22 50.22069 8.81096 9462 ft 282 kts 23°
2026-04-14 16:22 50.23877 8.82327 10042 ft 288 kts 22°
2026-04-14 16:23 50.25727 8.83582 10596 ft 294 kts 22°
2026-04-14 16:23 50.27715 8.84510 10886 ft 309 kts
2026-04-14 16:23 50.29912 8.84497 11175 ft 323 kts 352°
2026-04-14 16:23 50.32199 8.84018 11461 ft 338 kts 351°
2026-04-14 16:24 50.34564 8.83481 11733 ft 354 kts 351°
2026-04-14 16:24 50.37056 8.82922 12005 ft 369 kts 351°
2026-04-14 16:24 50.39595 8.82364 12478 ft 376 kts 352°
2026-04-14 16:24 50.42202 8.81800 12972 ft 377 kts 352°
2026-04-14 16:25 50.44817 8.81239 13176 ft 377 kts 352°